This demonstration page uses our WeatherBlox Daily Observations layout. Learn more.

Left ArrowRight Arrow

40.97296, -117.73568

Hourly Observations for August 8, 2022

Temp ( °F °C ) Dew Point ( °F °C ) Humidity (%) Winds ( mph kmh ) Pressure ( in mb ) Visibility ( mi km ) Precip ( " mm )
12:56 am 00:56 Clear 75 23.9 41 5 29 29 ENE 10 17 29.93 1014 10 16 0.00 0.00
1:56 am 01:56 Clear 73 22.8 42 5.6 33 33 NE 13 20 29.92 1013 10 16 0.00 0.00
2:56 am 02:56 Clear 73 22.8 43 6.1 34 34 ENE 12 19 29.93 1013 10 16 0.00 0.00
3:56 am 03:56 Clear 72 22.2 42 5.6 34 34 ENE 10 17 29.93 1014 10 16 0.00 0.00
4:56 am 04:56 Clear 68 20 43 6.1 40 40 E 8 13 29.94 1014 10 16 0.00 0.00
5:56 am 05:56 Mostly Sunny 71 21.7 43 6.1 36 36 ENE 9 15 29.95 1014 10 16 0.00 0.00
6:56 am 06:56 Sunny 71 21.7 43 6.1 36 36 ENE 13 20 29.96 1015 10 16 0.00 0.00
7:56 am 07:56 Mostly Cloudy 73 22.8 44 6.7 35 35 ENE 15 24 29.97 1015 10 16 0.00 0.00
8:56 am 08:56 Sunny 79 26.1 45 7.2 30 30 NE 14 22 29.97 1015 10 16 0.00 0.00
9:56 am 09:56 Sunny 86 30 44 6.7 23 23 E 6 9 29.97 1015 10 16 0.00 0.00
10:56 am 10:56 Sunny 90 32.2 45 7.2 21 21 VRB 3 6 29.95 1014 10 16 0.00 0.00
11:56 am 11:56 Sunny 96 35.6 45 7.2 17 17 SSE 8 13 29.93 1013 10 16 0.00 0.00
12:56 pm 12:56 Mostly Sunny 99 37.2 44 6.7 15 15 N 8 13 29.90 1012 10 16 0.00 0.00
1:56 pm 13:56 Sunny 97 36.1 43 6.1 16 16 Calm 29.88 1012 10 16 0.00 0.00
2:56 pm 14:56 Sunny 95 35 40 4.4 15 15 S 5 7 29.86 1011 10 16 0.00 0.00
3:46 pm 15:46 Mostly Cloudy with Light Rain 87 30.6 48 8.9 26 26 SSE 22 35 29.69 1005 10 16 0.01 0.13
3:56 pm 15:56 Mostly Cloudy with Light Rain 81 27.2 55 12.8 41 41 SSE 25 41 29.92 1013 8 13 0.01 0.13
4:56 pm 16:56 Mostly Sunny 90 32.2 50 10 26 26 S 22 35 29.88 1012 10 16 0.01 0.13
5:56 pm 17:56 Partly Cloudy 90 32.2 46 7.8 22 22 S 14 22 29.88 1012 10 16 0.00 0.00
6:56 pm 18:56 Mostly Cloudy 86 30 49 9.4 28 28 WSW 24 39 29.91 1013 8 13 0.00 0.00
7:13 pm 19:13 Cloudy with Haze 82 27.8 53 11.7 37 37 W 21 33 29.75 1007 6 10 0.00 0.00
7:56 pm 19:56 Partly Cloudy 81 27.2 51 10.6 35 35 SSW 6 9 29.96 1015 10 16 0.01 0.13
8:56 pm 20:56 Partly Cloudy 78 25.6 55 12.8 45 45 S 12 19 29.98 1015 10 16 0.01 0.13
9:56 pm 21:56 Clear 76 24.4 55 12.8 48 48 S 10 17 29.98 1015 10 16 0.00 0.00
10:56 pm 22:56 Mostly Clear 74 23.3 55 12.8 52 52 SSW 7 11 29.96 1015 10 16 0.00 0.00
11:56 pm 23:56 Mostly Cloudy with Light Rain 72 22.2 55 12.8 55 55 SW 9 15 29.94 1014 10 16 0.01 0.13

Powered by AerisWeather